Back to catalog

NIMBUS 2 DEB

AliveLEO
NORAD 37893·DEBRIS·🇺🇸 United States

Launched May 15, 1966 from Vandenberg Space Force Base

Loading…

Next Passes (next 24 hours)

TLE

FreshSource: Space-Track

Epoch: Sep 14, 2026, 10:07 UTC

1 37893U 66040AY  26257.42201424  .00001176  00000-0  19156-2 0  9996
2 37893 100.5044 236.2702 0058535 316.8080 195.8196 13.49690903696576

Track NIMBUS 2 DEB in real time with AllMySat

Download on the App Store